contact:dominique.lefevre@mio.osupytheas.fr, maurice.libes@osupytheas.fr, didier.mallarino@osupytheas.fr
Project:EMSO http://www.emso-fr.org/EMSO-France
Depth: 2436.0 m
Title:EMSO Ligure Ouest : Data MII capteur AQUADOPP
Date,Latitude,Longitude,X_East,Y_North,Z_Up,Amplitude_X,Amplitude_Y,Amplitude_Z,Batterie,SoundSpeed,Heading,Pitch,Roll,Pressure,TIS,Speed,Direction
, degrees North, degrees East, m.s-1, m.s-1,m.s-1, 1, 1, 1, Volt, m.s-1, degree, degree, degree, dbar, degree_C, m.s-1, degree
2019-10-09T00:04:05,42.805,6.029,-0.055,0.015,-0.011,104.0,111.0,100.0,13.3,1505.1,326.8,-0.7,1.8,2470.506,13.27,0.057,285.3
2019-10-09T00:07:06,42.805,6.029,-0.055,0.013,-0.027,102.0,110.0,100.0,13.4,1505.2,327.5,-0.8,1.8,2470.342,13.29,0.056,283.3
2019-10-09T00:10:07,42.805,6.029,-0.067,0.018,0.016,103.0,109.0,100.0,13.4,1505.2,324.1,-0.7,1.8,2470.198,13.3,0.069,285.0
2019-10-09T00:13:08,42.805,6.029,-0.039,0.039,0.008,103.0,111.0,100.0,13.4,1505.3,327.0,-0.7,1.8,2470.074,13.31,0.055,315.0
2019-10-09T00:16:09,42.805,6.029,-0.031,0.039,0.008,103.0,110.0,100.0,13.4,1505.3,325.9,-0.7,1.8,2469.979,13.31,0.049,321.5
2019-10-09T00:19:10,42.805,6.029,-0.059,0.028,-0.009,103.0,110.0,100.0,13.4,1505.3,323.7,-0.7,1.8,2469.954,13.32,0.065,295.4
2019-10-09T00:22:11,42.805,6.029,-0.063,0.036,0.0,103.0,112.0,98.0,13.4,1505.3,325.7,-0.7,1.9,2469.89,13.32,0.072,299.7
2019-10-09T00:25:12,42.805,6.029,-0.036,0.023,0.024,102.0,109.0,99.0,13.4,1505.3,327.1,-0.7,1.8,2469.866,13.32,0.042,302.6
2019-10-09T00:28:13,42.805,6.029,-0.025,0.026,0.004,102.0,110.0,100.0,13.3,1505.3,324.5,-0.7,1.8,2469.862,13.32,0.036,316.1
2019-10-09T00:31:14,42.805,6.029,-0.021,0.03,-0.012,102.0,109.0,101.0,13.4,1505.3,326.6,-0.7,1.8,2469.852,13.32,0.036,325.0
2019-10-09T00:34:15,42.805,6.029,-0.039,0.015,-0.053,102.0,108.0,100.0,13.4,1505.3,324.0,-0.7,1.8,2469.847,13.32,0.041,291.0
2019-10-09T00:37:16,42.805,6.029,-0.068,0.029,-0.036,102.0,108.0,100.0,13.3,1505.3,325.1,-0.7,1.9,2469.836,13.32,0.073,293.1
2019-10-09T00:40:17,42.805,6.029,-0.056,0.034,-0.041,103.0,109.0,99.0,13.4,1505.3,328.4,-0.7,1.8,2469.861,13.33,0.065,301.3
2019-10-09T00:43:18,42.805,6.029,-0.051,0.012,-0.022,101.0,108.0,99.0,13.4,1505.3,327.1,-0.7,1.8,2469.892,13.32,0.052,283.2
2019-10-09T00:46:19,42.805,6.029,-0.079,0.026,-0.046,102.0,109.0,99.0,13.3,1505.3,326.0,-0.7,1.8,2469.87,13.33,0.083,288.2
2019-10-09T00:49:20,42.805,6.029,-0.06,0.033,-0.006,102.0,108.0,100.0,13.4,1505.3,328.4,-0.7,1.8,2469.901,13.33,0.068,298.8
2019-10-09T00:52:21,42.805,6.029,-0.044,0.019,-0.009,102.0,108.0,100.0,13.4,1505.3,324.7,-0.7,1.8,2469.898,13.33,0.047,293.4
2019-10-09T00:55:22,42.805,6.029,-0.08,0.014,-0.034,101.0,110.0,99.0,13.3,1505.3,323.4,-0.7,1.8,2469.901,13.33,0.081,279.9
2019-10-09T00:58:23,42.805,6.029,-0.064,0.017,-0.035,102.0,108.0,100.0,13.4,1505.3,326.5,-0.7,1.8,2469.9,13.33,0.066,284.9
2019-10-09T01:01:24,42.805,6.029,-0.059,0.045,-0.027,104.0,110.0,99.0,13.4,1505.3,323.1,-0.7,1.8,2469.902,13.32,0.074,307.3
2019-10-09T01:04:25,42.805,6.029,-0.066,0.038,0.013,103.0,109.0,100.0,13.4,1505.3,324.0,-0.7,1.8,2469.865,13.32,0.076,299.9
2019-10-09T01:07:26,42.805,6.029,-0.058,0.022,-0.013,104.0,109.0,99.0,13.4,1505.3,325.0,-0.7,1.8,2469.918,13.32,0.062,290.8
2019-10-09T01:10:27,42.805,6.029,-0.058,0.036,-0.005,102.0,109.0,100.0,13.3,1505.3,327.0,-0.7,1.9,2469.917,13.32,0.068,301.8
2019-10-09T01:13:28,42.805,6.029,-0.041,0.028,-0.021,102.0,108.0,100.0,13.4,1505.3,325.1,-0.7,1.8,2469.932,13.32,0.049,304.3
2019-10-09T01:16:29,42.805,6.029,-0.062,0.038,0.008,101.0,109.0,101.0,13.3,1505.3,326.9,-0.7,1.8,2469.905,13.32,0.072,301.5
2019-10-09T01:19:30,42.805,6.029,-0.048,0.036,0.016,102.0,110.0,100.0,13.4,1505.3,326.5,-0.7,1.8,2469.924,13.32,0.06,306.9
2019-10-09T01:22:31,42.805,6.029,-0.046,0.022,0.005,103.0,108.0,100.0,13.3,1505.3,323.6,-0.7,1.8,2469.951,13.32,0.05,295.6
2019-10-09T01:25:32,42.805,6.029,-0.042,0.039,0.001,102.0,109.0,100.0,13.4,1505.3,327.9,-0.7,1.8,2469.933,13.32,0.057,312.9
2019-10-09T01:28:33,42.805,6.029,-0.059,0.043,-0.011,102.0,108.0,99.0,13.3,1505.3,326.6,-0.7,1.9,2469.96,13.32,0.073,306.1
2019-10-09T01:31:34,42.805,6.029,-0.052,0.055,0.013,102.0,111.0,100.0,13.4,1505.3,328.5,-0.7,1.9,2469.937,13.33,0.075,316.6
2019-10-09T01:34:35,42.805,6.029,-0.068,0.04,-0.052,103.0,111.0,99.0,13.4,1505.3,325.9,-0.7,1.8,2469.963,13.32,0.078,300.5
2019-10-09T01:37:36,42.805,6.029,-0.059,0.044,-0.004,102.0,109.0,100.0,13.4,1505.3,324.6,-0.7,1.8,2469.92,13.33,0.073,306.7
2019-10-09T01:40:37,42.805,6.029,-0.068,0.016,0.004,102.0,110.0,100.0,13.4,1505.3,325.0,-0.7,1.8,2469.964,13.33,0.069,283.2
2019-10-09T01:43:38,42.805,6.029,-0.057,0.037,-0.011,104.0,110.0,100.0,13.4,1505.3,325.9,-0.7,1.9,2469.953,13.32,0.067,303.0
2019-10-09T01:46:39,42.805,6.029,-0.05,0.045,0.001,102.0,111.0,99.0,13.4,1505.3,325.6,-0.7,1.9,2469.954,13.32,0.067,312.0
2019-10-09T01:49:40,42.805,6.029,-0.025,0.036,0.006,103.0,109.0,99.0,13.3,1505.3,324.0,-0.7,1.8,2469.984,13.33,0.043,325.2
2019-10-09T01:52:41,42.805,6.029,-0.045,0.039,0.022,103.0,111.0,100.0,13.4,1505.3,325.7,-0.7,1.8,2470.006,13.33,0.059,310.9
2019-10-09T01:55:42,42.805,6.029,-0.065,0.021,-0.026,102.0,109.0,100.0,13.3,1505.3,324.5,-0.7,1.8,2469.979,13.33,0.068,287.9
2019-10-09T01:58:43,42.805,6.029,-0.059,0.016,-0.001,103.0,109.0,99.0,13.4,1505.3,327.7,-0.7,1.8,2469.985,13.32,0.061,285.2
2019-10-09T02:01:44,42.805,6.029,-0.086,0.014,-0.037,104.0,111.0,99.0,13.3,1505.3,325.9,-0.7,1.8,2469.988,13.32,0.087,279.2
2019-10-09T02:04:45,42.805,6.029,-0.071,0.048,-0.011,102.0,110.0,99.0,13.3,1505.3,327.2,-0.6,1.8,2469.978,13.33,0.085,304.1
2019-10-09T02:07:46,42.805,6.029,-0.04,0.012,-0.015,103.0,110.0,100.0,13.3,1505.3,327.8,-0.7,1.8,2469.968,13.32,0.041,286.7
2019-10-09T02:10:47,42.805,6.029,-0.047,0.034,-0.003,103.0,112.0,101.0,13.4,1505.3,327.0,-0.7,1.9,2470.003,13.32,0.058,305.9
2019-10-09T02:13:48,42.805,6.029,-0.064,0.022,-0.025,103.0,109.0,99.0,13.3,1505.3,323.3,-0.7,1.8,2470.014,13.33,0.067,289.0
2019-10-09T02:16:49,42.805,6.029,-0.072,0.007,-0.058,103.0,110.0,101.0,13.3,1505.3,325.7,-0.7,1.8,2469.959,13.33,0.072,275.5
2019-10-09T02:19:50,42.805,6.029,-0.049,0.021,-0.021,102.0,110.0,101.0,13.4,1505.3,328.4,-0.7,1.8,2470.013,13.33,0.053,293.2
2019-10-09T02:22:51,42.805,6.029,-0.068,0.029,-0.006,103.0,111.0,100.0,13.4,1505.3,325.1,-0.7,1.8,2470.003,13.33,0.073,293.1
2019-10-09T02:25:52,42.805,6.029,-0.051,0.021,-0.009,102.0,108.0,101.0,13.4,1505.3,327.0,-0.7,1.8,2469.977,13.33,0.055,292.4
2019-10-09T02:28:53,42.805,6.029,-0.051,0.009,-0.006,103.0,108.0,100.0,13.3,1505.3,323.0,-0.8,1.9,2470.002,13.33,0.051,280.0
2019-10-09T02:31:54,42.805,6.029,-0.059,0.028,-0.001,102.0,110.0,100.0,13.4,1505.3,325.5,-0.7,1.8,2470.003,13.33,0.065,295.4
2019-10-09T02:34:55,42.805,6.029,-0.049,0.029,-0.007,103.0,112.0,100.0,13.4,1505.3,327.9,-0.7,1.8,2470.0,13.33,0.056,300.6
2019-10-09T02:37:56,42.805,6.029,-0.038,0.021,0.022,103.0,111.0,99.0,13.3,1505.3,323.1,-0.7,1.8,2470.016,13.33,0.043,298.9
2019-10-09T02:40:57,42.805,6.029,-0.074,0.029,0.008,103.0,111.0,100.0,13.4,1505.3,326.5,-0.7,1.8,2470.03,13.33,0.079,291.4
2019-10-09T02:43:58,42.805,6.029,-0.077,0.013,-0.02,101.0,111.0,101.0,13.4,1505.3,325.0,-0.8,1.8,2469.983,13.32,0.078,279.6
2019-10-09T02:46:59,42.805,6.029,-0.072,0.021,-0.012,103.0,109.0,100.0,13.4,1505.3,327.9,-0.7,1.9,2470.019,13.32,0.074,286.3
2019-10-09T02:50:00,42.805,6.029,-0.089,0.035,-0.011,102.0,110.0,98.0,13.4,1505.3,328.9,-0.7,1.9,2470.001,13.32,0.095,291.5
2019-10-09T02:53:01,42.805,6.029,-0.057,0.011,-0.041,102.0,110.0,101.0,13.3,1505.3,326.0,-0.7,1.8,2470.026,13.32,0.058,280.9
2019-10-09T02:56:02,42.805,6.029,-0.054,0.01,-0.012,101.0,112.0,100.0,13.3,1505.3,324.8,-0.7,1.9,2470.066,13.32,0.054,280.5
2019-10-09T02:59:03,42.805,6.029,-0.038,0.043,0.003,103.0,111.0,99.0,13.4,1505.3,325.5,-0.7,1.8,2470.018,13.32,0.057,318.5
2019-10-09T03:02:04,42.805,6.029,-0.031,0.035,0.006,102.0,111.0,100.0,13.4,1505.3,328.1,-0.7,1.8,2470.016,13.32,0.046,318.5
2019-10-09T03:05:05,42.805,6.029,-0.044,0.03,-0.003,103.0,111.0,100.0,13.4,1505.3,325.0,-0.7,1.8,2470.016,13.32,0.053,304.3
2019-10-09T03:08:06,42.805,6.029,-0.063,0.03,-0.024,102.0,110.0,100.0,13.4,1505.3,327.1,-0.7,1.8,2470.04,13.32,0.069,295.5
2019-10-09T03:11:07,42.805,6.029,-0.052,0.053,-0.022,102.0,110.0,100.0,13.4,1505.3,325.2,-0.7,1.8,2470.014,13.32,0.074,315.5
2019-10-09T03:14:08,42.805,6.029,-0.038,0.016,-0.009,104.0,110.0,100.0,13.4,1505.3,325.9,-0.7,1.8,2470.011,13.32,0.041,292.8
2019-10-09T03:17:09,42.805,6.029,-0.042,0.026,0.0,104.0,110.0,99.0,13.3,1505.3,327.0,-0.7,1.9,2470.054,13.32,0.049,301.8
2019-10-09T03:20:10,42.805,6.029,-0.053,0.056,0.027,102.0,111.0,100.0,13.4,1505.3,325.5,-0.7,1.8,2469.986,13.32,0.077,316.6
2019-10-09T03:23:11,42.805,6.029,-0.056,0.025,-0.01,102.0,112.0,100.0,13.4,1505.3,323.8,-0.7,1.8,2470.044,13.32,0.061,294.1
2019-10-09T03:26:12,42.805,6.029,-0.057,0.028,-0.012,103.0,110.0,99.0,13.4,1505.3,323.2,-0.7,1.8,2470.035,13.32,0.063,296.2
2019-10-09T03:29:13,42.805,6.029,-0.073,0.061,-0.027,102.0,112.0,99.0,13.3,1505.3,323.8,-0.7,1.8,2470.051,13.32,0.095,309.9
2019-10-09T03:32:14,42.805,6.029,-0.071,0.035,0.007,101.0,112.0,100.0,13.3,1505.3,326.2,-0.7,1.9,2470.061,13.32,0.079,296.2
2019-10-09T03:35:15,42.805,6.029,-0.064,0.023,-0.005,102.0,110.0,99.0,13.3,1505.3,324.8,-0.7,1.8,2470.039,13.32,0.068,289.8
2019-10-09T03:38:16,42.805,6.029,-0.029,0.02,0.006,101.0,113.0,99.0,13.4,1505.3,325.0,-0.7,1.8,2470.079,13.32,0.035,304.6
2019-10-09T03:41:17,42.805,6.029,-0.024,0.032,0.047,104.0,111.0,99.0,13.3,1505.3,327.2,-0.7,1.8,2470.056,13.32,0.04,323.1
2019-10-09T03:44:18,42.805,6.029,-0.063,0.058,0.024,101.0,112.0,99.0,13.4,1505.3,327.0,-0.7,1.8,2470.085,13.32,0.085,312.6
2019-10-09T03:47:19,42.805,6.029,-0.071,0.031,-0.039,102.0,110.0,100.0,13.4,1505.3,326.0,-0.7,1.8,2470.061,13.32,0.077,293.6
2019-10-09T03:50:20,42.805,6.029,-0.067,0.028,-0.026,102.0,112.0,100.0,13.3,1505.3,323.8,-0.7,1.8,2470.093,13.32,0.072,292.7
2019-10-09T03:53:21,42.805,6.029,-0.066,0.025,0.015,100.0,110.0,99.0,13.4,1505.3,327.3,-0.7,1.8,2470.006,13.32,0.07,290.7
2019-10-09T03:56:22,42.805,6.029,-0.039,0.037,0.009,103.0,110.0,98.0,13.4,1505.3,324.2,-0.7,1.8,2470.069,13.32,0.053,313.5
2019-10-09T03:59:23,42.805,6.029,-0.069,0.028,-0.012,102.0,110.0,99.0,13.4,1505.3,325.5,-0.7,1.9,2470.049,13.32,0.074,292.1
2019-10-09T04:02:24,42.805,6.029,-0.076,0.047,0.016,103.0,111.0,100.0,13.4,1505.3,325.3,-0.7,1.8,2470.038,13.32,0.089,301.7
2019-10-09T04:05:25,42.805,6.029,-0.042,0.034,0.017,103.0,113.0,99.0,13.3,1505.3,324.5,-0.7,1.8,2470.073,13.32,0.054,309.0
2019-10-09T04:08:26,42.805,6.029,-0.03,0.048,-0.008,102.0,110.0,99.0,13.3,1505.3,325.3,-0.7,1.8,2470.096,13.32,0.056,328.0
2019-10-09T04:11:27,42.805,6.029,-0.077,0.02,0.003,102.0,111.0,99.0,13.3,1505.3,325.0,-0.7,1.9,2470.071,13.32,0.079,284.6
2019-10-09T04:14:28,42.805,6.029,-0.052,0.041,0.01,103.0,111.0,100.0,13.4,1505.3,324.6,-0.7,1.8,2470.03,13.32,0.066,308.3
2019-10-09T04:17:29,42.805,6.029,-0.084,0.013,-0.005,102.0,112.0,99.0,13.4,1505.3,325.3,-0.7,1.8,2470.009,13.32,0.084,278.8
2019-10-09T04:20:30,42.805,6.029,-0.08,0.041,-0.034,102.0,112.0,100.0,13.4,1505.3,327.0,-0.7,1.8,2470.042,13.32,0.089,297.1
2019-10-09T04:23:31,42.805,6.029,-0.063,0.049,0.014,101.0,112.0,99.0,13.3,1505.3,323.0,-0.7,1.8,2470.086,13.32,0.079,307.9
2019-10-09T04:26:32,42.805,6.029,-0.052,0.039,-0.006,103.0,111.0,99.0,13.4,1505.3,327.6,-0.7,1.8,2470.017,13.33,0.064,306.9
2019-10-09T04:29:33,42.805,6.029,-0.061,0.051,0.03,101.0,112.0,99.0,13.4,1505.3,325.0,-0.7,1.8,2470.019,13.32,0.079,309.9
2019-10-09T04:32:34,42.805,6.029,-0.044,0.028,0.0,102.0,112.0,100.0,13.4,1505.3,324.1,-0.7,1.8,2470.04,13.32,0.052,302.5
2019-10-09T04:35:35,42.805,6.029,-0.064,0.035,0.006,101.0,112.0,99.0,13.3,1505.3,328.5,-0.7,1.9,2470.06,13.32,0.072,298.7
2019-10-09T04:38:36,42.805,6.029,-0.073,0.044,-0.003,102.0,113.0,100.0,13.3,1505.3,324.3,-0.7,1.8,2470.014,13.32,0.085,301.1
2019-10-09T04:41:37,42.805,6.029,-0.065,0.047,0.002,101.0,112.0,99.0,13.4,1505.3,327.2,-0.7,1.8,2470.059,13.33,0.08,305.9
2019-10-09T04:44:38,42.805,6.029,-0.047,0.038,0.027,102.0,112.0,99.0,13.3,1505.3,323.7,-0.7,1.8,2470.08,13.33,0.06,309.0
2019-10-09T04:47:39,42.805,6.029,-0.056,0.012,-0.026,103.0,112.0,99.0,13.4,1505.3,325.4,-0.7,1.8,2470.017,13.33,0.057,282.1
2019-10-09T04:50:40,42.805,6.029,-0.04,0.037,-0.004,101.0,114.0,102.0,13.3,1505.3,328.6,-0.7,1.9,2470.07,13.32,0.054,312.8
2019-10-09T04:53:41,42.805,6.029,-0.042,0.05,0.014,102.0,115.0,99.0,13.4,1505.3,326.5,-0.7,1.8,2470.036,13.32,0.065,320.0
2019-10-09T04:56:42,42.805,6.029,-0.055,0.022,-0.031,103.0,114.0,98.0,13.4,1505.3,323.8,-0.7,1.8,2470.076,13.32,0.059,291.8
2019-10-09T04:59:43,42.805,6.029,-0.07,0.038,0.007,102.0,112.0,99.0,13.4,1505.3,323.8,-0.7,1.8,2470.052,13.32,0.079,298.5
2019-10-09T05:02:44,42.805,6.029,-0.051,0.052,0.011,102.0,113.0,99.0,13.4,1505.3,328.0,-0.7,1.8,2470.009,13.32,0.072,315.5
2019-10-09T05:05:45,42.805,6.029,-0.017,0.046,0.031,102.0,114.0,99.0,13.4,1505.3,325.7,-0.7,1.8,2470.008,13.32,0.049,339.7
2019-10-09T05:08:46,42.805,6.029,-0.055,0.038,0.015,102.0,113.0,99.0,13.4,1505.3,325.5,-0.7,1.8,2470.042,13.32,0.066,304.6
2019-10-09T05:11:47,42.805,6.029,-0.056,0.027,0.008,105.0,112.0,99.0,13.4,1505.3,326.5,-0.7,1.9,2470.037,13.33,0.062,295.7
2019-10-09T05:14:48,42.805,6.029,-0.058,0.034,0.037,103.0,113.0,99.0,13.4,1505.3,323.0,-0.7,1.8,2470.027,13.33,0.067,300.4
2019-10-09T05:17:49,42.805,6.029,-0.058,0.034,0.009,102.0,113.0,100.0,13.3,1505.3,325.8,-0.7,1.8,2470.03,13.32,0.067,300.4
2019-10-09T05:20:50,42.805,6.029,-0.062,0.023,-0.029,103.0,113.0,99.0,13.4,1505.3,325.5,-0.7,1.8,2470.037,13.32,0.066,290.3
2019-10-09T05:23:51,42.805,6.029,-0.064,0.049,0.033,103.0,114.0,99.0,13.4,1505.3,324.3,-0.7,1.8,2470.037,13.32,0.08,307.4
2019-10-09T05:26:52,42.805,6.029,-0.081,0.021,-0.016,102.0,114.0,99.0,13.4,1505.3,326.8,-0.7,1.8,2470.016,13.32,0.083,284.5
2019-10-09T05:29:53,42.805,6.029,-0.039,0.031,-0.011,102.0,113.0,99.0,13.4,1505.3,326.3,-0.7,1.8,2470.056,13.33,0.049,308.5
2019-10-09T05:32:54,42.805,6.029,-0.065,0.04,-0.022,102.0,114.0,99.0,13.4,1505.3,328.0,-0.7,1.9,2470.027,13.32,0.076,301.6
2019-10-09T05:35:55,42.805,6.029,-0.072,0.021,-0.011,103.0,115.0,99.0,13.4,1505.3,326.4,-0.8,1.8,2470.051,13.32,0.074,286.3
2019-10-09T05:38:56,42.805,6.029,-0.077,0.026,-0.005,102.0,113.0,99.0,13.4,1505.3,324.8,-0.7,1.9,2470.058,13.33,0.081,288.7
2019-10-09T05:41:57,42.805,6.029,-0.039,0.035,0.013,101.0,113.0,99.0,13.3,1505.3,327.9,-0.7,1.8,2470.06,13.33,0.052,311.9
2019-10-09T05:44:58,42.805,6.029,-0.068,0.026,-0.028,103.0,112.0,98.0,13.3,1505.3,324.1,-0.8,1.8,2470.037,13.33,0.072,290.9
2019-10-09T05:47:59,42.805,6.029,-0.056,0.044,0.022,102.0,114.0,98.0,13.4,1505.3,324.2,-0.7,1.8,2470.064,13.32,0.071,308.2
2019-10-09T05:51:00,42.805,6.029,-0.053,0.036,0.025,102.0,114.0,100.0,13.4,1505.3,323.3,-0.8,1.8,2470.048,13.32,0.064,304.2
2019-10-09T05:54:01,42.805,6.029,-0.014,0.035,0.002,102.0,113.0,100.0,13.4,1505.3,326.1,-0.7,1.8,2470.048,13.32,0.037,338.2
2019-10-09T05:57:02,42.805,6.029,-0.051,0.044,0.007,102.0,113.0,100.0,13.4,1505.3,325.5,-0.7,1.8,2470.047,13.33,0.067,310.8
2019-10-09T06:00:03,42.805,6.029,-0.052,0.029,-0.027,101.0,113.0,99.0,13.3,1505.3,327.2,-0.7,1.8,2470.041,13.33,0.059,299.1
2019-10-09T06:03:04,42.805,6.029,-0.077,0.038,-0.006,101.0,112.0,101.0,13.4,1505.3,327.8,-0.7,1.8,2470.014,13.33,0.085,296.3
2019-10-09T06:06:05,42.805,6.029,-0.079,0.031,-0.003,102.0,116.0,99.0,13.4,1505.3,325.0,-0.7,1.8,2470.049,13.33,0.084,291.4
2019-10-09T06:09:06,42.805,6.029,-0.035,0.035,-0.024,103.0,115.0,99.0,13.4,1505.3,324.6,-0.7,1.8,2470.037,13.33,0.049,315.0
2019-10-09T06:12:07,42.805,6.029,-0.047,0.038,-0.007,101.0,114.0,100.0,13.4,1505.3,326.2,-0.7,1.8,2470.031,13.32,0.06,309.0
2019-10-09T06:15:08,42.805,6.029,-0.033,0.033,0.038,102.0,114.0,99.0,13.4,1505.3,326.9,-0.7,1.9,2470.07,13.32,0.046,315.0
2019-10-09T06:18:09,42.805,6.029,-0.061,0.034,-0.004,102.0,114.0,98.0,13.4,1505.3,325.1,-0.7,1.9,2470.054,13.32,0.069,299.1
2019-10-09T06:21:10,42.805,6.029,-0.06,0.035,0.01,103.0,111.0,99.0,13.3,1505.3,326.9,-0.7,1.8,2470.036,13.32,0.069,300.3
2019-10-09T06:24:11,42.805,6.029,-0.043,0.044,0.0,101.0,115.0,99.0,13.4,1505.3,323.8,-0.7,1.8,2470.042,13.32,0.061,315.7
2019-10-09T06:27:12,42.805,6.029,-0.031,0.026,-0.004,102.0,112.0,99.0,13.4,1505.3,325.6,-0.7,1.8,2470.029,13.33,0.04,310.0
2019-10-09T06:30:13,42.805,6.029,-0.039,0.043,0.008,100.0,114.0,100.0,13.4,1505.3,327.6,-0.7,1.8,2470.047,13.33,0.058,317.8
2019-10-09T06:33:14,42.805,6.029,-0.042,0.029,-0.004,101.0,115.0,100.0,13.4,1505.3,328.0,-0.7,1.8,2470.025,13.32,0.051,304.6
2019-10-09T06:36:15,42.805,6.029,-0.069,0.023,-0.055,102.0,112.0,99.0,13.3,1505.3,324.6,-0.7,1.9,2470.037,13.33,0.072,288.4
2019-10-09T06:39:16,42.805,6.029,-0.073,0.062,0.014,104.0,115.0,99.0,13.3,1505.3,324.8,-0.7,1.8,2469.991,13.32,0.095,310.3
2019-10-09T06:42:17,42.805,6.029,-0.072,0.052,0.023,100.0,116.0,98.0,13.3,1505.3,327.1,-0.7,1.9,2470.065,13.32,0.088,305.8
2019-10-09T06:45:18,42.805,6.029,-0.03,0.044,0.014,102.0,115.0,99.0,13.4,1505.3,324.1,-0.7,1.8,2470.046,13.32,0.053,325.7
2019-10-09T06:48:19,42.805,6.029,-0.085,0.028,-0.013,102.0,115.0,99.0,13.4,1505.3,324.9,-0.7,1.8,2470.065,13.32,0.089,288.2
2019-10-09T06:51:20,42.805,6.029,-0.051,0.04,0.006,101.0,114.0,99.0,13.4,1505.3,327.1,-0.7,1.8,2470.048,13.32,0.064,308.1
2019-10-09T06:54:21,42.805,6.029,-0.052,0.037,-0.015,101.0,113.0,101.0,13.4,1505.3,326.9,-0.8,1.8,2470.031,13.32,0.063,305.4
2019-10-09T06:57:22,42.805,6.029,-0.073,0.046,-0.015,102.0,114.0,98.0,13.4,1505.3,324.2,-0.7,1.8,2470.071,13.32,0.086,302.2
2019-10-09T07:00:23,42.805,6.029,-0.072,0.035,0.012,101.0,115.0,99.0,13.4,1505.3,327.4,-0.7,1.8,2470.036,13.32,0.08,295.9
2019-10-09T07:03:24,42.805,6.029,-0.047,0.03,-0.023,102.0,115.0,99.0,13.4,1505.3,326.3,-0.7,1.8,2470.043,13.32,0.055,302.6
2019-10-09T07:06:25,42.805,6.029,-0.043,0.017,0.001,102.0,115.0,99.0,13.4,1505.3,325.4,-0.7,1.8,2470.041,13.33,0.046,291.6
2019-10-09T07:09:26,42.805,6.029,-0.043,0.031,-0.022,101.0,112.0,99.0,13.4,1505.3,325.2,-0.7,1.8,2470.078,13.33,0.053,305.8
2019-10-09T07:12:27,42.805,6.029,-0.068,0.016,-0.017,102.0,114.0,99.0,13.4,1505.3,325.4,-0.7,1.8,2470.029,13.33,0.069,283.2
2019-10-09T07:15:28,42.805,6.029,-0.083,0.033,0.002,101.0,112.0,99.0,13.4,1505.3,324.8,-0.8,1.8,2470.051,13.33,0.089,291.7
2019-10-09T07:18:29,42.805,6.029,-0.06,0.041,0.008,102.0,113.0,100.0,13.4,1505.3,323.1,-0.7,1.9,2470.042,13.33,0.072,304.3
2019-10-09T07:21:30,42.805,6.029,-0.037,0.05,0.0,101.0,114.0,99.0,13.4,1505.3,328.3,-0.7,1.8,2470.035,13.33,0.062,323.5
2019-10-09T07:24:31,42.805,6.029,-0.031,0.039,-0.005,100.0,113.0,100.0,13.4,1505.3,326.6,-0.7,1.8,2470.006,13.33,0.049,321.5
2019-10-09T07:27:32,42.805,6.029,-0.038,0.062,0.049,102.0,115.0,98.0,13.4,1505.3,325.3,-0.7,1.8,2470.0,13.33,0.072,328.5
2019-10-09T07:30:33,42.805,6.029,-0.053,0.04,0.024,102.0,114.0,100.0,13.3,1505.3,323.2,-0.7,1.8,2470.026,13.32,0.066,307.0
2019-10-09T07:33:34,42.805,6.029,-0.052,0.04,-0.008,102.0,112.0,99.0,13.4,1505.3,327.3,-0.7,1.9,2470.009,13.32,0.065,307.6
2019-10-09T07:36:35,42.805,6.029,-0.025,0.05,0.016,102.0,114.0,99.0,13.4,1505.3,325.3,-0.7,1.9,2470.037,13.32,0.055,333.4
2019-10-09T07:39:36,42.805,6.029,-0.058,0.024,-0.002,102.0,112.0,99.0,13.4,1505.3,326.6,-0.7,1.8,2470.077,13.33,0.062,292.5
2019-10-09T07:42:37,42.805,6.029,-0.063,0.04,0.027,102.0,113.0,99.0,13.4,1505.3,323.6,-0.7,1.8,2470.006,13.32,0.074,302.4
2019-10-09T07:45:38,42.805,6.029,-0.057,0.036,0.009,101.0,116.0,99.0,13.4,1505.3,328.2,-0.7,1.8,2470.049,13.32,0.067,302.3
2019-10-09T07:48:39,42.805,6.029,-0.042,0.015,-0.009,102.0,113.0,98.0,13.4,1505.3,324.4,-0.7,1.8,2470.025,13.32,0.044,289.6
2019-10-09T07:51:40,42.805,6.029,-0.038,0.045,-0.024,100.0,113.0,99.0,13.4,1505.3,325.5,-0.7,1.8,2470.027,13.33,0.058,319.8
2019-10-09T07:54:41,42.805,6.029,-0.068,0.033,-0.035,101.0,113.0,100.0,13.4,1505.3,324.6,-0.8,1.8,2470.013,13.32,0.075,295.9
2019-10-09T07:57:42,42.805,6.029,-0.046,0.024,-0.01,102.0,115.0,99.0,13.4,1505.3,326.8,-0.7,1.8,2470.014,13.32,0.051,297.6
2019-10-09T08:00:43,42.805,6.029,-0.071,0.032,-0.017,103.0,114.0,99.0,13.4,1505.3,324.2,-0.7,1.8,2470.029,13.32,0.077,294.3
2019-10-09T08:03:44,42.805,6.029,-0.033,0.026,-0.007,101.0,112.0,98.0,13.4,1505.3,326.2,-0.7,1.9,2470.066,13.33,0.042,308.2
2019-10-09T08:06:45,42.805,6.029,-0.045,0.039,0.027,102.0,114.0,99.0,13.4,1505.3,324.8,-0.7,1.8,2470.038,13.33,0.059,310.9
2019-10-09T08:09:46,42.805,6.029,-0.069,0.04,-0.008,102.0,115.0,98.0,13.4,1505.3,325.4,-0.7,1.8,2469.996,13.33,0.079,300.1
2019-10-09T08:12:47,42.805,6.029,-0.046,0.057,-0.01,102.0,113.0,99.0,13.3,1505.3,326.2,-0.7,1.8,2470.02,13.33,0.073,321.1
2019-10-09T08:15:48,42.805,6.029,-0.049,0.051,0.001,102.0,114.0,99.0,13.4,1505.3,327.7,-0.7,1.8,2470.017,13.32,0.07,316.1
2019-10-09T08:18:49,42.805,6.029,-0.062,0.048,0.0,102.0,113.0,99.0,13.4,1505.3,324.0,-0.7,1.9,2470.03,13.32,0.078,307.7
2019-10-09T08:21:50,42.805,6.029,-0.047,0.051,0.0,101.0,114.0,99.0,13.4,1505.3,326.7,-0.7,1.8,2470.04,13.33,0.069,317.3
2019-10-09T08:24:51,42.805,6.029,-0.059,0.035,-0.006,102.0,113.0,99.0,13.4,1505.3,324.8,-0.7,1.8,2470.016,13.32,0.068,300.7
2019-10-09T08:27:52,42.805,6.029,-0.037,0.032,0.016,101.0,114.0,100.0,13.4,1505.3,325.8,-0.7,1.8,2470.002,13.32,0.048,310.9
2019-10-09T08:30:53,42.805,6.029,-0.058,0.032,-0.012,103.0,111.0,99.0,13.4,1505.3,325.9,-0.7,1.8,2470.005,13.32,0.066,298.9
2019-10-09T08:33:54,42.805,6.029,-0.03,0.042,0.006,101.0,116.0,99.0,13.4,1505.3,325.7,-0.7,1.9,2470.004,13.32,0.051,324.5
2019-10-09T08:36:55,42.805,6.029,-0.052,0.025,-0.022,101.0,116.0,98.0,13.4,1505.3,325.2,-0.7,1.8,2469.997,13.32,0.057,295.7
2019-10-09T08:39:56,42.805,6.029,-0.046,0.046,-0.023,102.0,111.0,98.0,13.4,1505.3,322.7,-0.7,1.8,2470.031,13.32,0.065,315.0
2019-10-09T08:42:57,42.805,6.029,-0.058,0.051,0.01,101.0,112.0,99.0,13.3,1505.3,328.4,-0.7,1.8,2470.018,13.33,0.077,311.3
2019-10-09T08:45:58,42.805,6.029,-0.071,0.04,-0.027,102.0,114.0,100.0,13.4,1505.3,324.7,-0.7,1.8,2470.004,13.33,0.081,299.4
2019-10-09T08:48:59,42.805,6.029,-0.074,0.04,-0.038,102.0,113.0,98.0,13.4,1505.3,326.0,-0.7,1.8,2470.042,13.32,0.084,298.4
2019-10-09T08:52:00,42.805,6.029,-0.061,0.024,-0.006,103.0,111.0,98.0,13.3,1505.3,325.1,-0.7,1.8,2469.977,13.33,0.065,291.5
2019-10-09T08:55:01,42.805,6.029,-0.043,0.051,-0.014,102.0,112.0,99.0,13.4,1505.3,323.8,-0.7,1.8,2469.968,13.33,0.066,319.9
2019-10-09T08:58:02,42.805,6.029,-0.041,0.054,0.001,101.0,114.0,99.0,13.3,1505.3,327.9,-0.7,1.8,2470.014,13.33,0.067,322.8
2019-10-09T09:01:03,42.805,6.029,-0.052,0.034,-0.013,102.0,111.0,99.0,13.3,1505.3,327.1,-0.7,1.8,2469.989,13.33,0.062,303.2
2019-10-09T09:04:04,42.805,6.029,-0.07,0.052,0.02,102.0,113.0,100.0,13.4,1505.3,327.9,-0.7,1.8,2469.967,13.32,0.087,306.6
2019-10-09T09:07:05,42.805,6.029,-0.048,0.05,-0.017,104.0,113.0,99.0,13.4,1505.3,327.4,-0.7,1.8,2470.023,13.32,0.069,316.2
2019-10-09T09:10:06,42.805,6.029,-0.051,0.031,-0.016,103.0,111.0,99.0,13.3,1505.3,325.1,-0.7,1.9,2470.001,13.32,0.059,301.3
2019-10-09T09:13:07,42.805,6.029,-0.053,0.04,-0.029,102.0,111.0,99.0,13.3,1505.3,326.9,-0.7,1.8,2469.986,13.33,0.066,307.0
2019-10-09T09:16:08,42.805,6.029,-0.05,0.039,-0.018,101.0,113.0,99.0,13.4,1505.3,325.3,-0.7,1.8,2469.972,13.33,0.063,308.0
2019-10-09T09:19:09,42.805,6.029,-0.069,0.052,-0.017,103.0,111.0,99.0,13.3,1505.3,323.2,-0.7,1.8,2469.938,13.33,0.086,307.0
2019-10-09T09:22:10,42.805,6.029,-0.056,0.06,0.026,100.0,114.0,100.0,13.4,1505.3,325.4,-0.7,1.9,2470.018,13.32,0.082,317.0
2019-10-09T09:25:11,42.805,6.029,-0.061,0.047,-0.015,102.0,115.0,97.0,13.3,1505.3,326.4,-0.7,1.8,2469.995,13.32,0.077,307.6
2019-10-09T09:28:12,42.805,6.029,-0.08,0.04,-0.023,103.0,110.0,99.0,13.4,1505.3,327.3,-0.7,1.8,2469.992,13.32,0.089,296.6
2019-10-09T09:31:13,42.805,6.029,-0.046,0.033,-0.022,102.0,111.0,99.0,13.4,1505.3,327.9,-0.7,1.8,2469.992,13.32,0.056,305.7
2019-10-09T09:34:14,42.805,6.029,-0.046,0.06,0.002,103.0,111.0,99.0,13.4,1505.3,323.5,-0.7,1.8,2469.973,13.33,0.075,322.5